Current Version              Previous Version:    01  02  03  04  05  06  07  08  09  10  11  12  13  14  15  16  17  18  19  20  21  22  23  24  25  26  27  28  29  30  
   31  32  33  34  35  36  37  38  39  40  41  42  43  44  45  46  47  48  49  50  51  52  53  54  55  56  57  58  59  60  

[Printable]
099
ASUS44 KFWD 302203
RWRTX
NORTH TEXAS HOURLY WEATHER ROUNDUP
NATIONAL WEATHER SERVICE FORT WORTH TX
500 PM CDT WED JUL 30 2014

NOTE: "FAIR" INDICATES FEW OR NO CLOUDS BELOW 12,000 FEET WITH NO
SIGNIFICANT WEATHER AND/OR OBSTRUCTIONS TO VISIBILITY.

TXZ118-119-302300-
DALLAS/FORT WORTH METROPLEX

CITY           SKY/WX    TMP DP  RH WIND       PRES   REMARKS
DFW AIRPORT    CLOUDY    89  72  56 SE14      29.94F HX  96
DALLAS LOVE    CLOUDY    88  70  55 SE16      29.94F HX  93
FTW MEACHAM    PTSUNNY   90  71  53 SE12      29.92F HX  96
DAL-EXECUTIVE  CLOUDY    90  68  48 SE15G21   29.94F HX  94
FTW-ALLIANCE   CLOUDY    85  70  60 SE15      29.93F
FTW-NAS-JRB    PTSUNNY   92  67  43 SE9       29.97F HX  95
FTW-SPINKS     PTSUNNY   91  70  49 S7        29.95F HX  97
ARLINGTON      CLOUDY    88  69  53 E9        29.94F HX  92
GRAND PRAIRIE  SUNNY     88  66  48 E10       29.95F HX  90
ADDISON        PTSUNNY   84  70  61 SE14G20   29.95
MESQUITE       SUNNY     86  70  58 SE8         N/A  HX  90
LANCASTER      PTSUNNY   89  67  47 SE9       29.95F HX  91
$$

TXZ091>094-102>105-117-120-121-131>134-302300-
NORTH CENTRAL TEXAS

CITY           SKY/WX    TMP DP  RH WIND       PRES   REMARKS
SHRMAN/DENISON CLOUDY    79  70  73 SE12G18   29.98F
GAINESVILLE    PTSUNNY   79  71  76 SE14      29.97F
BOWIE          PTSUNNY   84  73  67 SE12G21   29.94F HX  90
BRIDGEPORT     MOSUNNY   89  66  46 SE13      29.94F HX  91
DECATUR        PTSUNNY   84  71  63 SE14      29.95F
DENTON         PTSUNNY   85  72  65 SE13      29.94F HX  91
MCKINNEY       CLOUDY    83  72  69 SE10G22   29.95F
ROCKWALL       CLOUDY    85  71  61 SE10      29.95F HX  90
TERRELL        PTSUNNY   88  69  53 SE13      29.97F HX  92
WAXAHACHIE     CLOUDY    87  66  50 SE6       29.95F
CLEBURNE       PTSUNNY   90  72  55 SE15      29.95F HX  96
GRANBURY       PTSUNNY   95  67  39 SE12G20   29.93F HX  98
$$

TXZ083>090-098>101-113>116-127>130-139>142-154-155-302300-
WESTERN NORTH TEXAS

CITY           SKY/WX    TMP DP  RH WIND       PRES   REMARKS
WICHITA FALLS  MOSUNNY   87  69  54 SE14      29.91F HX  91
WF-KICKAPOO    SUNNY     89  67  48 SE13G21   29.91F HX  91
VERNON         PTSUNNY   86  70  59 NE3       29.95S HX  90
ABILENE        PTSUNNY   97  58  27 S12G21    29.91F HX  96
ABILENE-DYESS  SUNNY     97  63  33 S12       29.89F HX  98
BRECKENRIDGE   MOSUNNY   99  55  22 S16G22    29.90F HX  97
GRAHAM         SUNNY     97  56  25 SE12G18   29.88F HX  96
MINERAL WELLS  MOSUNNY   93  67  42 SE15G23   29.90F HX  96
STEPHENVILLE   MOSUNNY   94  60  32 SE15      29.96F HX  94
COMANCHE       MOSUNNY   99  52  20 S12G17    29.93F HX  96
BROWNWOOD      MOSUNNY   99  52  20 S10       29.92F HX  96
COLEMAN        SUNNY    100  50  18 S12G17    29.92F HX  97
BRADY          SUNNY     99  54  22 SE12      29.93F HX  96
$$

TXZ143>147-156>162-174-175-302300-
CENTRAL TEXAS

CITY           SKY/WX    TMP DP  RH WIND       PRES   REMARKS
WACO           MOSUNNY   94  69  44 S14       29.94F HX  99
WACO-TSTC      SUNNY     93  68  43 SE9       29.93F HX  97
WACO-MCGREGOR  MOSUNNY   99  70  39 S13G22    29.94F HX 105
HILLSBORO      PTSUNNY   94  68  42 SE10      29.94F HX  98
CORSICANA      MOSUNNY   91  70  49 SE15G22   29.97F HX  96
MEXIA          SUNNY     92  69  47 S7        29.96F HX  96
HEARNE         SUNNY    N/A N/A N/A E5        29.94F
CAMERON        MOSUNNY   95  70  43 S8        29.93F HX 101
TEMPLE         MOSUNNY   93  68  43 SE14G21   29.94F HX  97
KILLEEN        PTSUNNY   93  64  38 SE13G22   29.94F HX  95
KILLEEN-SKYLRK MOSUNNY   95  64  36 SE14G21   29.93F HX  97
FORT HOOD      MOSUNNY   94  65  38 SE12G18   29.94F HX  96
GATESVILLE     MOSUNNY   93  66  40 SE8G18    29.95F HX  96
HAMILTON       MOSUNNY   94  58  29 SE16G22   29.95F HX  93
LAMPASAS       MOSUNNY   96  67  38 SE12      29.94F HX 100
$$

TXZ095>097-106>112-122>126-135>138-148>153-164>167-302300-
EAST TEXAS

CITY           SKY/WX    TMP DP  RH WIND       PRES   REMARKS
PARIS          CLOUDY    73  66  78 E12       30.03F
SULPHUR SPRNGS PTSUNNY   80  70  73 E8        30.02F
CLARKSVILLE    PTSUNNY   76  71  85 E5        30.03F
MOUNT PLEASANT CLOUDY    76  69  79 E8        30.04F
GILMER         MOSUNNY   84  72  65 E6        30.03F
MINEOLA        MOSUNNY   84  72  65 E6        30.00F
TYLER          SUNNY     88  69  53 E12       30.00F HX  92
LONGVIEW       PTSUNNY   85  70  60 E10       30.01F
MARSHALL       CLOUDY    82  70  66 CALM      30.05S
ATHENS         SUNNY     86  70  58 SE6       29.97F HX  90
JACKSONVILLE   SUNNY     88  69  53 SE8       30.03F HX  92
HENDERSON      MOSUNNY   86  68  54 SE5       30.02F
NACOGDOCHES    SUNNY     88  70  55 SE9       30.00F HX  92
LUFKIN         SUNNY     92  68  45 E9        29.99F HX  96
$$

SUPPLEMENTAL OBSERVATIONS (CENTRAL)

CITY           SKY/WX    TMP DP  RH WIND       PRES   REMARKS
$$

SUPPLEMENTAL OBSERVATIONS (WEST)

CITY           SKY/WX    TMP DP  RH WIND       PRES   REMARKS
$$

SUPPLEMENTAL OBSERVATIONS (EAST)

CITY           SKY/WX    TMP DP  RH WIND       PRES   REMARKS
$$

SUPPLEMENTAL OBSERVATIONS ARE A COLLECTION OF AUTOMATED INSTRUMENTS
THAT ARE MAINTAINED BY A VARIETY OF FEDERAL AND STATE AGENCIES.
CERTAIN ELEMENTS...SUCH AS HUMIDITY VALUES AND SUSTAINED WIND
SPEEDS...MAY BE APPROXIMATED.